TimeEST,TemperatureF,Dew PointF,Humidity,Sea Level PressureIn,VisibilityMPH,Wind Direction,Wind SpeedMPH,Gust SpeedMPH,PrecipitationIn,Events,Conditions,WindDirDegrees,DateUTC
12:05 AM,21.6,19.4,91,29.97,7.0,NW,3.5,-,N/A,,Scattered Clouds,310,2014-02-02 05:05:00
12:25 AM,21.2,19.4,93,29.98,10.0,NW,3.5,-,N/A,,Scattered Clouds,320,2014-02-02 05:25:00
1:25 AM,21.2,19.4,93,29.99,10.0,NW,4.6,-,N/A,,Overcast,320,2014-02-02 06:25:00
1:45 AM,21.2,19.4,93,29.99,10.0,NNW,3.5,-,N/A,,Overcast,330,2014-02-02 06:45:00
2:05 AM,21.2,19.4,93,30.00,10.0,NW,4.6,-,N/A,,Overcast,320,2014-02-02 07:05:00
2:25 AM,21.2,19.4,93,30.01,10.0,NW,4.6,-,N/A,,Overcast,310,2014-02-02 07:25:00
2:45 AM,21.2,19.4,93,30.01,10.0,NW,6.9,-,N/A,,Overcast,310,2014-02-02 07:45:00
3:05 AM,21.2,19.4,93,30.02,10.0,NW,5.8,-,N/A,,Overcast,310,2014-02-02 08:05:00
3:25 AM,21.2,19.4,93,30.02,10.0,NW,5.8,-,N/A,,Overcast,310,2014-02-02 08:25:00
3:45 AM,21.2,19.4,93,30.04,10.0,NW,5.8,-,N/A,,Overcast,310,2014-02-02 08:45:00
4:05 AM,21.2,17.6,86,30.04,10.0,NW,4.6,-,N/A,,Overcast,320,2014-02-02 09:05:00
4:25 AM,21.2,17.6,86,30.03,10.0,NNW,4.6,-,N/A,,Overcast,330,2014-02-02 09:25:00
4:45 AM,21.2,17.6,86,30.03,10.0,NNW,4.6,-,N/A,,Overcast,330,2014-02-02 09:45:00
5:05 AM,21.2,17.6,86,30.04,10.0,Calm,Calm,-,N/A,,Overcast,0,2014-02-02 10:05:00
5:25 AM,21.2,17.6,86,30.04,10.0,Calm,Calm,-,N/A,,Overcast,0,2014-02-02 10:25:00
5:45 AM,21.2,17.6,86,30.04,10.0,Calm,Calm,-,N/A,,Overcast,0,2014-02-02 10:45:00
6:05 AM,21.2,17.6,86,30.05,10.0,Calm,Calm,-,N/A,,Overcast,0,2014-02-02 11:05:00
6:25 AM,21.2,17.6,86,30.05,10.0,Calm,Calm,-,N/A,,Overcast,0,2014-02-02 11:25:00
6:45 AM,21.2,17.6,86,30.05,10.0,Calm,Calm,-,N/A,,Mostly Cloudy,0,2014-02-02 11:45:00
7:05 AM,19.4,17.6,93,30.06,10.0,Calm,Calm,-,N/A,,Clear,0,2014-02-02 12:05:00
7:25 AM,17.6,15.8,93,30.07,10.0,Calm,Calm,-,N/A,,Scattered Clouds,0,2014-02-02 12:25:00
7:45 AM,19.4,17.6,93,30.08,10.0,Calm,Calm,-,N/A,,Overcast,0,2014-02-02 12:45:00
8:05 AM,19.4,17.6,93,30.09,10.0,WNW,3.5,-,N/A,,Overcast,290,2014-02-02 13:05:00
8:25 AM,21.2,17.6,86,30.10,10.0,Calm,Calm,-,N/A,,Overcast,0,2014-02-02 13:25:00
8:45 AM,21.2,17.6,86,30.10,10.0,Calm,Calm,-,N/A,,Overcast,0,2014-02-02 13:45:00
9:05 AM,21.2,17.6,86,30.11,10.0,Calm,Calm,-,N/A,,Overcast,0,2014-02-02 14:05:00
9:25 AM,21.2,17.6,86,30.11,10.0,WNW,5.8,-,N/A,,Overcast,300,2014-02-02 14:25:00
9:45 AM,21.2,17.6,86,30.11,7.0,WNW,6.9,-,N/A,,Overcast,290,2014-02-02 14:45:00
10:05 AM,21.2,17.6,86,30.12,7.0,WNW,5.8,-,N/A,,Overcast,300,2014-02-02 15:05:00
10:25 AM,21.2,17.6,86,30.14,5.0,WNW,5.8,-,N/A,,Overcast,290,2014-02-02 15:25:00
10:45 AM,21.2,17.6,86,30.14,7.0,NW,4.6,-,N/A,,Overcast,310,2014-02-02 15:45:00
11:05 AM,23.0,15.8,74,30.15,10.0,WNW,5.8,-,N/A,,Overcast,300,2014-02-02 16:05:00
11:25 AM,23.0,15.8,74,30.16,10.0,WNW,6.9,-,N/A,,Overcast,300,2014-02-02 16:25:00
11:45 AM,23.0,15.8,74,30.16,10.0,WNW,8.1,-,N/A,,Overcast,300,2014-02-02 16:45:00
12:05 PM,23.0,15.8,74,30.16,10.0,WNW,8.1,-,N/A,,Overcast,300,2014-02-02 17:05:00
12:25 PM,23.0,15.8,74,30.16,10.0,West,8.1,-,N/A,,Overcast,280,2014-02-02 17:25:00
12:45 PM,23.0,15.8,74,30.15,10.0,WNW,9.2,-,N/A,,Overcast,290,2014-02-02 17:45:00
1:05 PM,23.0,14.0,68,30.15,10.0,WNW,11.5,-,N/A,,Overcast,290,2014-02-02 18:05:00
1:25 PM,24.8,14.0,64,30.13,10.0,West,11.5,16.1,N/A,,Overcast,280,2014-02-02 18:25:00
1:45 PM,24.8,14.0,64,30.12,10.0,WNW,12.7,18.4,N/A,,Overcast,290,2014-02-02 18:45:00
2:05 PM,24.8,14.0,64,30.13,10.0,WNW,11.5,-,N/A,,Mostly Cloudy,290,2014-02-02 19:05:00
2:25 PM,23.0,12.2,63,30.13,10.0,WNW,8.1,-,N/A,,Scattered Clouds,300,2014-02-02 19:25:00
2:45 PM,23.0,14.0,68,30.12,10.0,NW,8.1,-,N/A,,Mostly Cloudy,310,2014-02-02 19:45:00
3:05 PM,23.0,12.2,63,30.14,10.0,WNW,5.8,-,N/A,,Overcast,300,2014-02-02 20:05:00
3:25 PM,23.0,14.0,68,30.17,10.0,WNW,9.2,-,N/A,,Overcast,290,2014-02-02 20:25:00
3:45 PM,23.0,12.2,63,30.15,10.0,NW,5.8,-,N/A,,Overcast,320,2014-02-02 20:45:00
4:05 PM,21.2,12.2,68,30.18,10.0,NW,8.1,-,N/A,,Overcast,310,2014-02-02 21:05:00
4:25 PM,21.2,12.2,68,30.17,10.0,NW,5.8,-,N/A,,Overcast,320,2014-02-02 21:25:00
4:53 PM,21.2,11.3,66,30.19,10.0,NW,6.9,-,N/A,,Mostly Cloudy,320,2014-02-02 21:53:00
4:54 PM,21.2,11.3,66,30.19,10.0,NW,6.9,-,N/A,,Mostly Cloudy,310,2014-02-02 21:54:00
5:13 PM,20.8,11.3,67,30.20,10.0,WNW,5.8,-,N/A,,Scattered Clouds,300,2014-02-02 22:13:00
5:33 PM,20.5,12.0,70,30.20,10.0,NW,4.6,-,N/A,,Scattered Clouds,310,2014-02-02 22:33:00
5:54 PM,19.8,12.2,72,30.20,10.0,NW,5.8,-,N/A,,Clear,310,2014-02-02 22:54:00
6:13 PM,19.2,12.6,75,30.21,10.0,NW,5.8,-,N/A,,Scattered Clouds,310,2014-02-02 23:13:00
6:33 PM,18.9,12.2,75,30.21,10.0,NW,4.6,-,N/A,,Scattered Clouds,310,2014-02-02 23:33:00
6:54 PM,17.6,11.8,78,30.21,10.0,NW,3.5,-,N/A,,Clear,310,2014-02-02 23:54:00
7:13 PM,16.5,11.3,80,30.23,10.0,WNW,3.5,-,N/A,,Clear,300,2014-02-03 00:13:00
7:33 PM,12.4,8.1,83,30.23,10.0,West,3.5,-,N/A,,Clear,280,2014-02-03 00:33:00
7:54 PM,12.7,9.5,87,30.23,10.0,Calm,Calm,-,N/A,,Scattered Clouds,0,2014-02-03 00:54:00
8:13 PM,9.0,5.4,85,30.21,10.0,Calm,Calm,-,N/A,,Scattered Clouds,0,2014-02-03 01:13:00
8:33 PM,6.6,3.9,89,30.23,10.0,West,3.5,-,N/A,,Scattered Clouds,270,2014-02-03 01:33:00
8:54 PM,10.8,8.4,90,30.22,10.0,Calm,Calm,-,N/A,,Scattered Clouds,0,2014-02-03 01:54:00
9:13 PM,8.6,5.9,89,30.24,10.0,Calm,Calm,-,N/A,,Clear,0,2014-02-03 02:13:00
9:33 PM,9.9,7.0,88,30.23,10.0,Calm,Calm,-,N/A,,Clear,0,2014-02-03 02:33:00
9:54 PM,7.5,5.4,91,30.23,10.0,Calm,Calm,-,N/A,,Clear,0,2014-02-03 02:54:00
10:13 PM,9.9,7.9,92,30.23,10.0,Calm,Calm,-,N/A,,Clear,0,2014-02-03 03:13:00
10:34 PM,5.5,3.0,89,30.23,10.0,Calm,Calm,-,N/A,,Clear,0,2014-02-03 03:34:00
10:54 PM,8.4,6.8,93,30.23,10.0,Calm,Calm,-,N/A,,Clear,0,2014-02-03 03:54:00
11:13 PM,5.4,3.2,91,30.23,10.0,Calm,Calm,-,N/A,,Clear,0,2014-02-03 04:13:00
11:34 PM,6.8,5.4,94,30.23,5.0,Calm,Calm,-,N/A,,Clear,0,2014-02-03 04:34:00
11:54 PM,3.2,0.9,90,30.25,7.0,Calm,Calm,-,N/A,,Clear,0,2014-02-03 04:54:00